{"data":{"norad_id":67326,"epoch":"2026-05-24T23:53:28.431744Z","epoch_age_seconds":65520,"freshness":"FRESH","line1":"1 67326U 26002X   26144.99546796  .00013553  00000+0  50095-3 0  9994","line2":"2 67326  43.0045 253.9123 0001239 286.3226  73.7489 15.27591461 22914","mean_motion":15.27591461,"eccentricity":0.0001239,"inclination_deg":43.0045,"raan_deg":253.9123,"arg_perigee_deg":286.3226,"mean_anomaly_deg":73.7489,"bstar":0.00050095,"rev_number":2291,"period_min":94.266041462247,"perigee_km":482.16468119186,"apogee_km":483.86487460243,"semimajor_km":6861.1517778971,"source":"CELESTRAK","updated_at":"2026-05-25T13:38:21.519587Z"}}